Location: Newark
(50.0306°N, 2.3272°E)
Time: 03:24:03
(UTC+00:00)

Transit 2A Rocket - Visible Passes

Search period start: 22 January 2021 00:00
Search period end: 01 February 2021 00:00
Orbit: 592 x 910 km, 66.7° (Epoch: 21 January)

Date Brightness Start Highest point End Pass type
(mag) Time Alt. Az. Time Alt. Az. Time Alt. Az.
22 Jan 6.8 17:38:39 10° N 17:39:55 11° N 17:41:09 10° NNE visible
22 Jan 6.8 19:20:27 10° NNW 19:21:43 16° N 19:21:43 16° N visible
23 Jan 6.4 18:38:03 10° NNW 18:40:22 17° NNE 18:40:22 17° NNE visible
23 Jan 7.6 20:20:06 10° NW 20:20:16 11° NW 20:20:16 11° NW visible
24 Jan 6.5 17:55:40 10° NNW 17:58:09 14° NNE 17:59:04 13° NE visible
24 Jan 6.7 19:37:33 10° NNW 19:38:59 19° NNW 19:38:59 19° NNW visible
25 Jan 6.7 17:13:19 10° N 17:15:01 12° NNE 17:16:39 10° NE visible
25 Jan 6.0 18:55:06 10° NNW 18:57:44 25° N 18:57:44 25° N visible
25 Jan 7.7 20:37:34 10° NW 20:37:38 10° NW 20:37:38 10° NW visible
26 Jan 5.9 18:12:40 10° NNW 18:16:10 21° NNE 18:16:32 21° NE visible
26 Jan 6.7 19:54:50 10° NW 19:56:26 22° NW 19:56:26 22° NW visible
27 Jan 6.3 17:30:17 10° NNW 17:33:10 16° NNE 17:35:24 12° ENE visible
27 Jan 5.4 19:12:15 10° NNW 19:15:19 40° NNW 19:15:19 40° NNW visible
28 Jan 5.0 18:29:44 10° NNW 18:33:57 38° NE 18:34:18 38° NE visible
28 Jan 6.9 20:12:28 10° NW 20:14:13 21° WNW 20:14:13 21° WNW visible
29 Jan 5.6 17:47:17 10° NNW 17:51:06 26° NE 17:53:23 17° E visible
29 Jan 5.3 19:29:37 10° NW 19:33:19 50° W 19:33:19 50° W visible
30 Jan 4.3 18:46:58 10° NW 18:51:24 85° NE 18:52:34 48° SE visible
30 Jan 7.5 20:31:09 10° WNW 20:32:31 13° W 20:32:31 13° W visible
31 Jan 4.7 18:04:24 10° NNW 18:08:44 51° NE 18:12:02 16° ESE visible
31 Jan 6.6 19:47:30 10° WNW 19:50:56 23° WSW 19:52:00 21° SW visible
